[[{"header":{"parameterUnit":"m.s-1","parameterCategory":2,"la1":30.2991,"la2":30.254,"lo1":-89.0895,"lo2":-89.0444,"dy":0.0017,"dx":0.0017,"nx":28,"ny":28,"refTime":"2025-01-22T03:00:00:Z","depth":"0","parameterNumber":2,"parameterNumberName":"U-component_of_CURRENTS"},"data":[0,0,0,0,0,0,0,0,0,0,0,0,0,0,0,0,0,0,0,0,0,0,0,0,0,0,0,0,0,0,0,0,0,0,0,0,0,0,0,0,0,0,0,0,0,0,0,0,0,0,0,0,0,0,0,0,0,0,0.1984,0.1984,0,0.1972,0.1972,0.1972,0.197,0.197,0.197,0.197,0.1915,0.1913,0.1912,0,0,0,0,0,0,0,0,0,0,0,0,0,0.1997,0.1997,0.1984,0.1984,0.1984,0.1972,0.1972,0.1972,0.197,0.197,0.197,0.197,0.1915,0.1913,0.1911,0,0,0,0,0,0,0,0,0,0,0,0,0,0.1988,0.1997,0.1984,0.1982,0.1982,0.1972,0.1972,0.1971,0.197,0.197,0.197,0.1971,0.1916,0.1914,0.1911,0.189,0,0,0.1904,0.1902,0,0,0,0,0,0,0,0,0.1988,0.1987,0.1983,0.1982,0.1982,0.1974,0.1956,0.1942,0.197,0.1973,0.197,0.1971,0.1931,0.1927,0.1923,0.1887,0.1885,0.1903,0.1902,0.1901,0.19,0,0,0,0,0,0,0,0.1989,0.1988,0.1978,0.1983,0.1982,0.1979,0.1978,0.1954,0.1949,0.1973,0.1973,0.1973,0.193,0.1926,0.1922,0.1884,0.1903,0.1901,0.19,0.1899,0.1865,0.1866,0,0,0,0,0,0,0.1993,0.1988,0.1979,0.1978,0.1987,0.1979,0.1978,0.1975,0.195,0.1947,0.1973,0.1973,0.193,0.1925,0.192,0.1919,0.1901,0.1898,0.1897,0.1864,0.1865,0.1866,0,0,0,0,0,0,0.1993,0.1992,0.1979,0.1984,0.1982,0.1979,0.1976,0.1975,0.1974,0.1951,0.1947,0.1973,0.193,0.1923,0.1909,0.1916,0.1897,0.1895,0.1864,0.1865,0.1865,0.19,0,0,0,0,0,0,0.1993,0.1992,0.199,0.1984,0.1982,0.1983,0.1975,0.1974,0.1974,0.1974,0.1949,0.1945,0.193,0.1913,0.1906,0.1912,0.1893,0.1863,0.1864,0.1865,0.1899,0.1902,0.1906,0,0,0,0,0,0.1994,0.1989,0.199,0.1989,0.198,0.1984,0.1983,0.1981,0.1973,0.1979,0.1963,0.1946,0.1916,0.1911,0.1903,0.1909,0.1862,0.1864,0.1865,0.1897,0.1902,0.1906,0,0,0,0,0,0,0.1986,0.1989,0.1989,0.1983,0.1989,0.1984,0.1986,0.1981,0.1972,0.1971,0.1946,0.194,0.1935,0.1915,0.1911,0.1905,0.1889,0.1889,0.1916,0.192,0.1923,0.193,0.1891,0,0,0,0,0,0.1985,0.1985,0.199,0.1985,0.1992,0.1988,0.1988,0.1989,0.1981,0.1978,0.196,0.1943,0.1933,0.1922,0.1911,0.1896,0.19,0.1898,0.1902,0.1905,0.1907,0.1928,0.1934,0.187,0.187,0.187,0,0,0.1974,0.198,0.1976,0.1984,0.1987,0.1993,0.1989,0.1995,0.1994,0.1971,0.1961,0.1954,0.1934,0.193,0.1925,0.1913,0.1927,0.1907,0.1909,0.1909,0.1931,0.1937,0.1942,0.1871,0.1871,0.1871,0,0,0.1965,0.1968,0.1971,0.1981,0.1995,0.1997,0.2,0.2002,0.2002,0.1994,0.1984,0.1984,0.1955,0.1952,0.1944,0.1958,0.195,0.1953,0.1968,0.199,0.1995,0.2,0.2021,0.2027,0.1949,0.195,0.195,0,0.195,0.1962,0.1972,0.1984,0.199,0.1999,0.2005,0.2006,0.2,0.2003,0.1997,0.1985,0.1968,0.197,0.1978,0.1966,0.1977,0.1952,0.1995,0.2,0.2005,0.2024,0.2031,0.1951,0.1951,0.1951,0.1951,0,0.1957,0.1961,0.1966,0.1984,0.1991,0.2001,0.201,0.2016,0.2016,0.2017,0.2027,0.2016,0.2011,0.2008,0.1992,0.2015,0.2013,0.2003,0.1985,0.2013,0.2032,0.2038,0.1954,0.1953,0.1953,0.1952,0,0,0.1933,0.1962,0.1966,0.1972,0.1995,0.1998,0.2009,0.2025,0.2036,0.2038,0.2052,0.2044,0.205,0.2042,0.2033,0.2046,0.2086,0.2036,0.2036,0.2058,0.2138,0.2146,0.2153,0.2086,0.2087,0.2088,0.2141,0,0.1935,0.1952,0.1971,0.1977,0.1984,0.2003,0.2013,0.2027,0.2042,0.206,0.2067,0.2077,0.2059,0.2066,0.2078,0.2088,0.2103,0.2073,0.2106,0.2107,0.2111,0.2161,0.2139,0.2186,0.2148,0.2149,0.2149,0,0.1942,0.1952,0.1961,0.1978,0.1985,0.1989,0.2018,0.2029,0.2063,0.208,0.2102,0.2111,0.2133,0.2115,0.2152,0.2134,0.2138,0.2143,0.2145,0.2143,0.2126,0.215,0.2198,0.2161,0.2159,0.2158,0.2157,0,0.1926,0.1945,0.195,0.1956,0.1977,0.1985,0.1999,0.2033,0.2059,0.2097,0.213,0.2152,0.2179,0.2189,0.2204,0.2182,0.225,0.2219,0.2229,0.2229,0.2212,0.2209,0.2229,0.2245,0.2245,0.2245,0.2245,0,0.1925,0.193,0.194,0.1944,0.1954,0.1971,0.1997,0.2022,0.2073,0.2117,0.2138,0.2188,0.2201,0.2241,0.2233,0.2266,0.2277,0.2247,0.225,0.2224,0.2222,0.2188,0.2145,0.2247,0.2247,0.2246,0.2246,0,0.191,0.1923,0.1925,0.194,0.1946,0.1952,0.1998,0.2025,0.2074,0.2137,0.2156,0.2231,0.2287,0.2301,0.2334,0.2317,0.2288,0.2336,0.2307,0.2306,0.2263,0.2222,0.2185,0.2106,0.2353,0.2354,0.2354,0,0.1897,0.1896,0.1913,0.192,0.1928,0.1943,0.1966,0.2018,0.2063,0.2169,0.2209,0.2286,0.2346,0.2406,0.2404,0.241,0.2319,0.2373,0.2319,0.2275,0.2232,0.2156,0.2085,0.2312,0.2312,0.2312,0.2312,0,0.1867,0.188,0.189,0.1906,0.1923,0.1941,0.1982,0.202,0.2098,0.2164,0.2263,0.2317,0.2404,0.2417,0.2434,0.2428,0.229,0.2374,0.2338,0.2214,0.2124,0.2045,0.226,0.2313,0.2313,0.2313,0.2313,0.2313,0.1843,0.1849,0.1871,0.1885,0.1906,0.1931,0.1926,0.201,0.2078,0.217,0.2259,0.2339,0.2404,0.2439,0.2409,0.237,0.2305,0.2307,0.2267,0.2199,0.2102,0.2323,0.2372,0.2372,0.2372,0.2372,0.2372,0,0.1794,0.1827,0.1846,0.186,0.1856,0.1883,0.1928,0.1929,0.1997,0.2138,0.2215,0.2324,0.2354,0.2374,0.2352,0.2265,0.2176,0.2214,0.2099,0.2033,0.2257,0.2235,0.2245,0.2245,0.2245,0.2245,0.2245,0.2246,0.178,0.1788,0.1807,0.1796,0.1797,0.1773,0.1774,0.1821,0.1905,0.2008,0.21,0.2185,0.2275,0.2335,0.2253,0.2203,0.2013,0.1999,0.192,0.2095,0.21,0.2105,0.2076,0.2053,0.2053,0.1663,0.166,0.1658]},{"header":{"parameterUnit":"m.s-1","parameterCategory":2,"la1":30.2991,"la2":30.254,"lo1":-89.0895,"lo2":-89.0444,"dy":0.0017,"dx":0.0017,"nx":28,"ny":28,"refTime":"2025-01-22T03:00:00:Z","depth":"0","parameterNumber":3,"parameterNumberName":"V-component_of_CURRENTS"},"data":[0,0,0,0,0,0,0,0,0,0,0,0,0,0,0,0,0,0,0,0,0,0,0,0,0,0,0,0,0,0,0,0,0,0,0,0,0,0,0,0,0,0,0,0,0,0,0,0,0,0,0,0,0,0,0,0,0,0,-0.0394,-0.0395,0,-0.0417,-0.0417,-0.0417,-0.0426,-0.0426,-0.0426,-0.0426,-0.0378,-0.0376,-0.0375,0,0,0,0,0,0,0,0,0,0,0,0,0,-0.0348,-0.0349,-0.0394,-0.0395,-0.0395,-0.0417,-0.0417,-0.0417,-0.0426,-0.0426,-0.0426,-0.0426,-0.0378,-0.0376,-0.0375,0,0,0,0,0,0,0,0,0,0,0,0,0,-0.0369,-0.035,-0.0394,-0.0402,-0.0403,-0.0417,-0.0417,-0.0417,-0.0426,-0.0426,-0.0426,-0.0426,-0.0378,-0.0377,-0.0375,-0.0363,0,0,-0.0369,-0.0368,0,0,0,0,0,0,0,0,-0.0368,-0.0371,-0.0401,-0.0402,-0.0403,-0.0419,-0.0383,-0.0396,-0.0426,-0.0417,-0.0426,-0.0426,-0.0385,-0.0383,-0.0387,-0.0361,-0.0359,-0.0369,-0.0367,-0.0367,-0.0366,0,0,0,0,0,0,0,-0.0366,-0.037,-0.0403,-0.0401,-0.0402,-0.0401,-0.0404,-0.0386,-0.0399,-0.0418,-0.0419,-0.0422,-0.0385,-0.0389,-0.0386,-0.0358,-0.0369,-0.0367,-0.0366,-0.0365,-0.0312,-0.0312,0,0,0,0,0,0,-0.0365,-0.0368,-0.0402,-0.0403,-0.0385,-0.0402,-0.0405,-0.0414,-0.0401,-0.04,-0.0422,-0.0422,-0.0393,-0.0388,-0.0384,-0.0352,-0.0367,-0.0365,-0.0364,-0.0312,-0.0312,-0.0312,0,0,0,0,0,0,-0.0364,-0.0368,-0.0401,-0.0386,-0.0391,-0.0403,-0.0412,-0.0414,-0.0419,-0.0405,-0.0402,-0.0425,-0.0392,-0.0387,-0.0364,-0.035,-0.0364,-0.0362,-0.0313,-0.0312,-0.0312,-0.0298,0,0,0,0,0,0,-0.0363,-0.0368,-0.0372,-0.0387,-0.0391,-0.0406,-0.0412,-0.0414,-0.0421,-0.0422,-0.0406,-0.0402,-0.0392,-0.0367,-0.0362,-0.0348,-0.0361,-0.0313,-0.0312,-0.0312,-0.0298,-0.0297,-0.0295,0,0,0,0,0,-0.0361,-0.0367,-0.0372,-0.0376,-0.0398,-0.0406,-0.0408,-0.0417,-0.0421,-0.0421,-0.0409,-0.0402,-0.0361,-0.0365,-0.036,-0.0344,-0.0313,-0.0312,-0.0312,-0.0299,-0.0297,-0.0295,0,0,0,0,0,0,-0.0351,-0.0368,-0.0375,-0.0386,-0.0395,-0.0408,-0.0407,-0.0417,-0.0411,-0.0406,-0.0396,-0.0391,-0.0367,-0.036,-0.0365,-0.0329,-0.0337,-0.0335,-0.0329,-0.0327,-0.0325,-0.0318,-0.0359,0,0,0,0,0,-0.0351,-0.0355,-0.0374,-0.0379,-0.0383,-0.0395,-0.04,-0.0407,-0.0405,-0.0404,-0.0394,-0.0379,-0.0361,-0.0347,-0.0333,-0.031,-0.0316,-0.0298,-0.0297,-0.0295,-0.0286,-0.029,-0.0288,-0.031,-0.031,-0.031,0,0,-0.0344,-0.0356,-0.0357,-0.0376,-0.0381,-0.0374,-0.0397,-0.0401,-0.0389,-0.0396,-0.0372,-0.0373,-0.0355,-0.0331,-0.032,-0.0321,-0.0295,-0.0295,-0.0294,-0.0285,-0.0289,-0.0287,-0.0285,-0.0309,-0.0309,-0.0309,0,0,-0.0331,-0.0347,-0.0344,-0.0347,-0.0358,-0.0361,-0.0362,-0.0375,-0.0374,-0.0359,-0.0359,-0.0354,-0.0326,-0.0314,-0.0303,-0.0284,-0.029,-0.0281,-0.026,-0.0264,-0.0263,-0.0261,-0.0278,-0.0278,-0.0277,-0.0277,-0.0277,0,-0.032,-0.0321,-0.0344,-0.0339,-0.0328,-0.0352,-0.0334,-0.0337,-0.034,-0.0332,-0.0346,-0.0321,-0.0315,-0.0281,-0.028,-0.0279,-0.0288,-0.0268,-0.0262,-0.0261,-0.0259,-0.0278,-0.0278,-0.0276,-0.0276,-0.0276,-0.0276,0,-0.0307,-0.0298,-0.0293,-0.0288,-0.0285,-0.0272,-0.0278,-0.0274,-0.0278,-0.0284,-0.0267,-0.0273,-0.0259,-0.0261,-0.0262,-0.0246,-0.0259,-0.0264,-0.0267,-0.0256,-0.0276,-0.0277,-0.0275,-0.0275,-0.0276,-0.0276,0,0,-0.0288,-0.0282,-0.0275,-0.0256,-0.0251,-0.0245,-0.0221,-0.0207,-0.0188,-0.0206,-0.0185,-0.0182,-0.0207,-0.0196,-0.0208,-0.0215,-0.0227,-0.0235,-0.0235,-0.0252,-0.0246,-0.0274,-0.0278,-0.0231,-0.0231,-0.0231,-0.0269,0,-0.0258,-0.023,-0.0235,-0.0188,-0.0167,-0.0169,-0.0142,-0.0136,-0.0137,-0.0127,-0.0148,-0.0137,-0.0174,-0.0174,-0.0188,-0.0209,-0.0225,-0.0216,-0.0254,-0.0255,-0.028,-0.0278,-0.0304,-0.0341,-0.027,-0.027,-0.027,0,-0.024,-0.0216,-0.0171,-0.0127,-0.0117,-0.0097,-0.0055,-0.0039,-0.0036,-0.004,-0.005,-0.0073,-0.0084,-0.0123,-0.0163,-0.0157,-0.0201,-0.0229,-0.0231,-0.0258,-0.0283,-0.0337,-0.0345,-0.0501,-0.0271,-0.0271,-0.027,0,-0.0211,-0.0168,-0.0124,-0.0109,-0.0071,-0.0047,-0.0028,-0.0015,0.0011,0.0007,0.0017,-0.0011,-0.0018,-0.0073,-0.0144,-0.0152,-0.0196,-0.0212,-0.0281,-0.0284,-0.0313,-0.0318,-0.0472,-0.0245,-0.0245,-0.0245,-0.0245,0,-0.0176,-0.0137,-0.0107,-0.008,-0.0019,-0.0016,0.0038,0.0048,0.0068,0.0106,0.0057,0.0078,-0.0005,-0.0044,-0.0121,-0.0202,-0.0181,-0.0275,-0.0291,-0.031,-0.0315,-0.0457,-0.0536,-0.0247,-0.0246,-0.0246,-0.0246,0,-0.0154,-0.0133,-0.0077,-0.0026,-0.0007,0.003,0.0085,0.0125,0.0127,0.0174,0.0175,0.0151,0.0098,0.0004,-0.008,-0.0164,-0.0333,-0.0281,-0.0307,-0.0325,-0.0537,-0.0613,-0.0741,-0.0811,-0.0362,-0.0363,-0.0363,0,-0.0136,-0.0111,-0.0041,-0.0001,0.0025,0.0079,0.0128,0.0154,0.0201,0.0226,0.0262,0.0218,0.0206,0.0056,-0.0098,-0.0243,-0.0367,-0.0372,-0.0391,-0.0555,-0.0651,-0.0687,-0.0739,-0.0432,-0.0433,-0.0434,-0.0435,0,-0.01,-0.0084,-0.0037,0.0043,0.0102,0.0176,0.0241,0.029,0.0327,0.0356,0.0394,0.0379,0.0232,0.0082,-0.013,-0.0245,-0.0496,-0.0397,-0.0556,-0.0712,-0.0769,-0.0841,-0.0413,-0.0444,-0.0443,-0.0442,-0.0442,-0.0442,-0.0069,-0.0037,0.0018,0.0099,0.0172,0.0269,0.0336,0.0391,0.0463,0.0501,0.0494,0.0458,0.023,-0.0057,-0.0227,-0.0592,-0.0563,-0.0706,-0.0783,-0.0801,-0.088,-0.0479,-0.0532,-0.0532,-0.0531,-0.0531,-0.0531,0,-0.0022,0.0009,0.0074,0.0182,0.0283,0.0306,0.0419,0.0467,0.0543,0.0541,0.055,0.0379,0.0097,-0.0212,-0.0655,-0.0921,-0.1006,-0.1086,-0.116,-0.1192,-0.0832,-0.0849,-0.0985,-0.0985,-0.0985,-0.0985,-0.0985,-0.0984,0.0004,0.0066,0.0097,0.0265,0.0347,0.0462,0.0531,0.0562,0.0567,0.0514,0.0438,0.0364,0.0015,-0.0622,-0.1176,-0.1302,-0.1509,-0.1545,-0.1633,-0.1421,-0.1391,-0.1363,-0.1399,-0.1649,-0.165,-0.1958,-0.1962,-0.1964]}],[{"header":{"parameterUnit":"m.s-1","parameterCategory":2,"la1":30.2991,"la2":30.254,"lo1":-89.0895,"lo2":-89.0444,"dy":0.0017,"dx":0.0017,"nx":28,"ny":28,"refTime":"2025-01-22T03:00:00:Z","depth":"2","parameterNumber":2,"parameterNumberName":"U-component_of_CURRENTS"},"data":[0,0,0,0,0,0,0,0,0,0,0,0,0,0,0,0,0,0,0,0,0,0,0,0,0,0,0,0,0,0,0,0,0,0,0,0,0,0,0,0,0,0,0,0,0,0,0,0,0,0,0,0,0,0,0,0,0,0,0.1968,0.1968,0,0.1956,0.1956,0.1956,0.1954,0.1954,0.1954,0.1954,0.1901,0.19,0.1898,0,0,0,0,0,0,0,0,0,0,0,0,0,0.1981,0.1981,0.1968,0.1968,0.1968,0.1956,0.1956,0.1956,0.1954,0.1954,0.1954,0.1954,0.1902,0.19,0.1898,0,0,0,0,0,0,0,0,0,0,0,0,0,0.1972,0.1981,0.1968,0.1967,0.1966,0.1956,0.1956,0.1955,0.1954,0.1954,0.1954,0.1954,0.1902,0.19,0.1898,0.1877,0,0,0.189,0.1889,0,0,0,0,0,0,0,0,0.1973,0.1972,0.1967,0.1967,0.1966,0.1957,0.1941,0.1928,0.1954,0.1957,0.1954,0.1955,0.1917,0.1913,0.1909,0.1875,0.1872,0.189,0.1889,0.1888,0.1887,0,0,0,0,0,0,0,0.1973,0.1972,0.1963,0.1967,0.1967,0.1963,0.1962,0.1938,0.1934,0.1957,0.1957,0.1957,0.1916,0.1912,0.1908,0.1872,0.189,0.1888,0.1887,0.1886,0.1855,0.1855,0,0,0,0,0,0,0.1977,0.1973,0.1963,0.1962,0.1971,0.1963,0.1962,0.1959,0.1935,0.1932,0.1957,0.1957,0.1916,0.1911,0.1906,0.1907,0.1888,0.1885,0.1884,0.1854,0.1855,0.1856,0,0,0,0,0,0,0.1977,0.1976,0.1964,0.1968,0.1966,0.1963,0.196,0.1959,0.1959,0.1936,0.1932,0.1959,0.1916,0.1909,0.1896,0.1904,0.1884,0.1882,0.1854,0.1855,0.1855,0.1891,0,0,0,0,0,0,0.1977,0.1976,0.1976,0.1968,0.1966,0.1968,0.196,0.1959,0.1959,0.1959,0.1935,0.1931,0.1915,0.19,0.1894,0.19,0.188,0.1853,0.1854,0.1855,0.1889,0.1893,0.1896,0,0,0,0,0,0.1978,0.1974,0.1975,0.1974,0.1966,0.1969,0.1968,0.1965,0.1959,0.1964,0.1949,0.1932,0.1903,0.1898,0.1891,0.1897,0.1852,0.1854,0.1855,0.1887,0.1892,0.1896,0,0,0,0,0,0,0.1971,0.1974,0.1975,0.197,0.1976,0.1969,0.197,0.1967,0.1958,0.1957,0.1933,0.1927,0.1923,0.1904,0.1899,0.1893,0.1877,0.1877,0.1904,0.1908,0.1912,0.1918,0.1878,0,0,0,0,0,0.1972,0.1972,0.1977,0.1972,0.1978,0.1975,0.1975,0.1975,0.1967,0.1964,0.1947,0.1931,0.1921,0.191,0.19,0.1886,0.189,0.1888,0.1892,0.1895,0.1897,0.1919,0.1924,0.186,0.186,0.186,0,0,0.1961,0.1967,0.1963,0.1971,0.1974,0.1979,0.1976,0.1981,0.198,0.1958,0.1949,0.1942,0.1923,0.1918,0.1914,0.1902,0.1917,0.1897,0.19,0.19,0.1921,0.1927,0.1933,0.1861,0.1861,0.1861,0,0,0.1951,0.1955,0.1959,0.1968,0.1983,0.1983,0.1987,0.1988,0.1989,0.1983,0.1972,0.1973,0.1945,0.1942,0.1933,0.1948,0.194,0.1944,0.1959,0.1981,0.1986,0.1991,0.2011,0.2018,0.194,0.1941,0.1941,0,0.1936,0.1949,0.196,0.1973,0.1978,0.1986,0.1993,0.1994,0.1988,0.1991,0.1986,0.1975,0.1958,0.196,0.1968,0.1956,0.1967,0.1943,0.1986,0.1991,0.1995,0.2015,0.2021,0.1942,0.1942,0.1942,0.1942,0,0.1944,0.1949,0.1954,0.1973,0.1979,0.1988,0.1997,0.2004,0.2004,0.2006,0.2016,0.2005,0.2001,0.1999,0.1983,0.2006,0.2003,0.1993,0.1976,0.2004,0.2023,0.2029,0.1945,0.1944,0.1944,0.1943,0,0,0.192,0.1951,0.1954,0.196,0.1984,0.1986,0.1997,0.2013,0.2025,0.2027,0.2042,0.2034,0.2041,0.2033,0.2024,0.2036,0.2077,0.2027,0.2027,0.2049,0.2128,0.2134,0.2141,0.2077,0.2078,0.2079,0.2132,0,0.1923,0.1941,0.196,0.1967,0.1974,0.1992,0.2001,0.2015,0.2031,0.2049,0.2056,0.2067,0.205,0.2057,0.2069,0.2079,0.2094,0.2064,0.2096,0.2097,0.21,0.2149,0.1921,0.195,0.2138,0.2139,0.2139,0,0.1932,0.1943,0.1952,0.1968,0.1975,0.1979,0.2007,0.2019,0.2053,0.207,0.2092,0.2101,0.2124,0.2106,0.2142,0.2125,0.2129,0.2134,0.2136,0.2132,0.2114,0.195,0.1954,0.215,0.2149,0.2148,0.2147,0,0.1918,0.1936,0.1942,0.1947,0.1968,0.1976,0.199,0.2023,0.2049,0.2087,0.212,0.2142,0.2169,0.2179,0.2194,0.2172,0.2239,0.2208,0.2217,0.2217,0.2025,0.2007,0.2235,0.2234,0.2234,0.2234,0.2234,0,0.1919,0.1923,0.1932,0.1936,0.1946,0.1962,0.1988,0.2013,0.2063,0.2107,0.2129,0.2177,0.2191,0.223,0.2223,0.2254,0.2266,0.2235,0.2238,0.2033,0.2016,0.2183,0.2176,0.2236,0.2236,0.2235,0.2235,0,0.1906,0.1918,0.192,0.1934,0.1939,0.1945,0.199,0.2017,0.2066,0.2128,0.2147,0.222,0.2276,0.2289,0.2321,0.2304,0.232,0.2322,0.2087,0.2063,0.2272,0.2266,0.2335,0.2336,0.2337,0.2337,0.2338,0,0.1894,0.1893,0.1909,0.1915,0.1923,0.1938,0.196,0.2011,0.2055,0.2159,0.2199,0.2275,0.2324,0.2383,0.2333,0.2325,0.2365,0.2141,0.206,0.229,0.2286,0.2279,0.2273,0.1811,0.1807,0.1804,0.1802,0,0.1866,0.1879,0.1889,0.1903,0.1919,0.1936,0.1976,0.2013,0.209,0.2144,0.224,0.2285,0.2328,0.2218,0.2215,0.2183,0.2123,0.2082,0.2372,0.1842,0.1806,0.1799,0.1807,0.1773,0.1776,0.1778,0.178,0.1781,0.1843,0.185,0.1871,0.1883,0.1903,0.1926,0.1919,0.1954,0.2005,0.2009,0.2149,0.2094,0.2103,0.1966,0.1922,0.187,0.2024,0.1908,0.1912,0.1922,0.1873,0.1842,0.1806,0.1809,0.1812,0.1814,0.1816,0,0.1783,0.1828,0.1846,0.1856,0.1847,0.1878,0.1921,0.1865,0.1855,0.1853,0.1851,0.1675,0.1596,0.1613,0.148,0.1517,0.1449,0.147,0.1328,0.1359,0.1386,0.1304,0.109,0.1087,0.1085,0.1084,0,0,0.1765,0.1767,0.1785,0.1775,0.1786,0.1729,0.1728,0.1637,0.1597,0.1485,0.1395,0.141,0.1527,0.124,0.1239,0.1138,0.1233,0.1097,0.1677,0.1538,0.1561,0.164,0.1552,0,0,0,0,0]},{"header":{"parameterUnit":"m.s-1","parameterCategory":2,"la1":30.2991,"la2":30.254,"lo1":-89.0895,"lo2":-89.0444,"dy":0.0017,"dx":0.0017,"nx":28,"ny":28,"refTime":"2025-01-22T03:00:00:Z","depth":"2","parameterNumber":3,"parameterNumberName":"V-component_of_CURRENTS"},"data":[0,0,0,0,0,0,0,0,0,0,0,0,0,0,0,0,0,0,0,0,0,0,0,0,0,0,0,0,0,0,0,0,0,0,0,0,0,0,0,0,0,0,0,0,0,0,0,0,0,0,0,0,0,0,0,0,0,0,-0.0312,-0.0312,0,-0.0335,-0.0335,-0.0335,-0.0348,-0.0348,-0.0348,-0.0348,-0.0303,-0.0302,-0.03,0,0,0,0,0,0,0,0,0,0,0,0,0,-0.0264,-0.0265,-0.0312,-0.0312,-0.0312,-0.0335,-0.0335,-0.0335,-0.0348,-0.0348,-0.0348,-0.0348,-0.0303,-0.0302,-0.03,0,0,0,0,0,0,0,0,0,0,0,0,0,-0.0285,-0.0265,-0.0312,-0.0321,-0.0322,-0.0335,-0.0335,-0.0336,-0.0348,-0.0348,-0.0348,-0.0348,-0.0304,-0.0302,-0.03,-0.0287,0,0,-0.0294,-0.0294,0,0,0,0,0,0,0,0,-0.0284,-0.0287,-0.032,-0.0321,-0.0322,-0.0339,-0.0302,-0.0316,-0.0348,-0.0338,-0.0348,-0.0348,-0.0309,-0.0306,-0.0311,-0.0285,-0.0283,-0.0294,-0.0293,-0.0292,-0.0292,0,0,0,0,0,0,0,-0.0282,-0.0286,-0.032,-0.032,-0.0321,-0.032,-0.0323,-0.0305,-0.0321,-0.0339,-0.034,-0.0343,-0.0309,-0.0313,-0.031,-0.0282,-0.0294,-0.0293,-0.0291,-0.0291,-0.0239,-0.0238,0,0,0,0,0,0,-0.0281,-0.0285,-0.032,-0.0321,-0.0303,-0.0321,-0.0324,-0.0333,-0.0323,-0.0322,-0.0343,-0.0343,-0.0316,-0.0312,-0.0308,-0.0278,-0.0292,-0.0291,-0.0289,-0.0239,-0.0239,-0.0238,0,0,0,0,0,0,-0.028,-0.0284,-0.0319,-0.0303,-0.0308,-0.0322,-0.0331,-0.0333,-0.0341,-0.0327,-0.0324,-0.0348,-0.0316,-0.0311,-0.029,-0.0276,-0.029,-0.0288,-0.0239,-0.0239,-0.0239,-0.0225,0,0,0,0,0,0,-0.0279,-0.0284,-0.029,-0.0303,-0.0308,-0.0325,-0.0331,-0.0334,-0.0343,-0.0344,-0.033,-0.0326,-0.0316,-0.0293,-0.0288,-0.0274,-0.0287,-0.024,-0.0239,-0.0239,-0.0226,-0.0224,-0.0223,0,0,0,0,0,-0.0277,-0.0283,-0.0291,-0.0295,-0.0317,-0.0325,-0.0327,-0.0337,-0.0343,-0.0344,-0.0333,-0.0327,-0.0286,-0.0291,-0.0285,-0.0271,-0.024,-0.0239,-0.0239,-0.0226,-0.0224,-0.0223,0,0,0,0,0,0,-0.0267,-0.0286,-0.0294,-0.0306,-0.0315,-0.0327,-0.0327,-0.0338,-0.0333,-0.0329,-0.032,-0.0315,-0.0293,-0.0285,-0.0291,-0.0256,-0.0263,-0.0261,-0.0256,-0.0254,-0.0252,-0.0245,-0.0285,0,0,0,0,0,-0.0268,-0.0274,-0.0293,-0.0299,-0.0303,-0.0316,-0.0321,-0.0329,-0.0327,-0.0327,-0.0318,-0.0304,-0.0286,-0.0274,-0.0259,-0.0236,-0.0243,-0.0225,-0.0224,-0.0223,-0.0214,-0.0218,-0.0216,-0.0236,-0.0236,-0.0236,0,0,-0.0261,-0.0275,-0.0276,-0.0297,-0.0301,-0.0295,-0.0319,-0.0323,-0.0311,-0.0319,-0.0297,-0.0298,-0.0281,-0.0257,-0.0246,-0.0248,-0.0223,-0.0222,-0.0221,-0.0212,-0.0217,-0.0215,-0.0213,-0.0236,-0.0236,-0.0236,0,0,-0.0248,-0.0265,-0.0264,-0.0268,-0.0279,-0.0282,-0.0284,-0.0297,-0.0297,-0.0284,-0.0284,-0.0279,-0.0253,-0.0241,-0.0229,-0.0211,-0.0217,-0.0208,-0.0189,-0.0193,-0.0191,-0.019,-0.0207,-0.0208,-0.0205,-0.0205,-0.0205,0,-0.0235,-0.024,-0.0263,-0.0261,-0.025,-0.0274,-0.0257,-0.026,-0.0264,-0.0256,-0.0271,-0.0248,-0.0242,-0.0208,-0.0207,-0.0206,-0.0216,-0.0196,-0.0191,-0.0189,-0.0188,-0.0207,-0.0207,-0.0204,-0.0204,-0.0204,-0.0204,0,-0.0225,-0.0218,-0.0213,-0.0211,-0.0209,-0.0195,-0.0201,-0.0198,-0.0203,-0.0209,-0.0194,-0.02,-0.0187,-0.0189,-0.019,-0.0174,-0.0188,-0.0192,-0.0195,-0.0185,-0.0206,-0.0206,-0.0203,-0.0203,-0.0203,-0.0203,0,0,-0.0206,-0.0203,-0.0197,-0.0179,-0.0175,-0.0169,-0.0145,-0.0131,-0.0114,-0.0133,-0.0112,-0.011,-0.0136,-0.0125,-0.0137,-0.0144,-0.0157,-0.0164,-0.0165,-0.0182,-0.0178,-0.0206,-0.021,-0.0161,-0.0161,-0.0161,-0.02,0,-0.0178,-0.0153,-0.016,-0.0114,-0.0093,-0.0094,-0.0068,-0.0062,-0.0064,-0.0055,-0.0075,-0.0066,-0.0103,-0.0104,-0.0118,-0.0139,-0.0155,-0.0146,-0.0184,-0.0185,-0.0211,-0.021,-0.0146,-0.0177,-0.0201,-0.0201,-0.0201,0,-0.0166,-0.0142,-0.0099,-0.0054,-0.0045,-0.0025,0.0017,0.0033,0.0036,0.0031,0.002,-0.0003,-0.0015,-0.0054,-0.0095,-0.0088,-0.0132,-0.016,-0.0162,-0.019,-0.0214,-0.0188,-0.0177,-0.0202,-0.0202,-0.0202,-0.0202,0,-0.0139,-0.0097,-0.0053,-0.0039,0.0,0.0023,0.0043,0.0056,0.0082,0.0076,0.0087,0.0058,0.005,-0.0005,-0.0077,-0.0085,-0.0129,-0.0145,-0.0214,-0.0217,-0.017,-0.0169,-0.0179,-0.0179,-0.0178,-0.0178,-0.0178,0,-0.0108,-0.007,-0.0038,-0.0012,0.0049,0.0052,0.0106,0.0116,0.0137,0.0174,0.0125,0.0146,0.0062,0.0023,-0.0054,-0.0136,-0.0115,-0.0209,-0.0225,-0.0166,-0.0165,-0.0188,-0.0188,-0.018,-0.018,-0.0179,-0.0179,0,-0.0091,-0.0069,-0.0014,0.0039,0.0059,0.0095,0.0152,0.0192,0.0193,0.0241,0.0241,0.0217,0.0163,0.0069,-0.0015,-0.0099,-0.0179,-0.0216,-0.0153,-0.0161,-0.0274,-0.0273,-0.0296,-0.0297,-0.0299,-0.0299,-0.03,0,-0.0076,-0.0052,0.0021,0.0061,0.0088,0.0142,0.0192,0.0219,0.0266,0.0292,0.0328,0.0282,0.0273,0.0123,-0.0005,-0.0144,-0.0188,-0.0216,-0.0223,-0.027,-0.0284,-0.0281,-0.0279,-0.0158,-0.0158,-0.0157,-0.0157,0,-0.0044,-0.0027,0.002,0.0102,0.0162,0.0237,0.0304,0.0353,0.0392,0.0427,0.0464,0.0452,0.0325,0.0219,0.0016,-0.0078,-0.0191,-0.0215,-0.0259,-0.0147,-0.0146,-0.0157,-0.0158,-0.0153,-0.0154,-0.0154,-0.0154,-0.0154,-0.0016,0.0016,0.0073,0.0154,0.0229,0.0328,0.0398,0.0491,0.0574,0.066,0.0602,0.0601,0.0449,0.0231,0.0052,-0.0149,-0.0156,-0.0231,-0.023,-0.0229,-0.0214,-0.0216,-0.0235,-0.0236,-0.0237,-0.0237,-0.0238,0,0.0052,0.0061,0.0126,0.0239,0.0347,0.0365,0.048,0.0582,0.0717,0.0757,0.0799,0.0664,0.0523,0.0311,0.0045,-0.0136,-0.013,-0.0217,-0.0156,-0.0157,-0.0159,-0.0139,-0.0141,-0.0142,-0.0142,-0.0143,0,0,0.0084,0.0157,0.0189,0.0348,0.0411,0.0574,0.0646,0.0788,0.0853,0.0927,0.0909,0.0882,0.0595,0.0422,0.0193,0.002,-0.0036,-0.0017,-0.0069,0.0031,0.003,-0.0137,-0.0104,0,0,0,0,0]}],[{"header":{"parameterUnit":"m.s-1","parameterCategory":2,"la1":30.2991,"la2":30.254,"lo1":-89.0895,"lo2":-89.0444,"dy":0.0017,"dx":0.0017,"nx":28,"ny":28,"refTime":"2025-01-22T03:00:00:Z","depth":"4","parameterNumber":2,"parameterNumberName":"U-component_of_CURRENTS"},"data":[0,0,0,0,0,0,0,0,0,0,0,0,0,0,0,0,0,0,0,0,0,0,0,0,0,0,0,0,0,0,0,0,0,0,0,0,0,0,0,0,0,0,0,0,0,0,0,0,0,0,0,0,0,0,0,0,0,0,0.0985,0.0986,0,0.1025,0.1026,0.1026,0.1073,0.1073,0.1074,0.1074,0.1169,0.1171,0.1173,0,0,0,0,0,0,0,0,0,0,0,0,0,0.0957,0.0957,0.0985,0.0986,0.0986,0.1025,0.1026,0.1026,0.1072,0.1073,0.1074,0.1075,0.1169,0.1171,0.1173,0,0,0,0,0,0,0,0,0,0,0,0,0,0.0981,0.0958,0.0985,0.1014,0.1016,0.1025,0.1026,0.1026,0.1072,0.1073,0.1074,0.1075,0.1168,0.1171,0.1173,0.1171,0,0,0.1182,0.1183,0,0,0,0,0,0,0,0,0.0979,0.0982,0.1009,0.1012,0.1015,0.1045,0.1051,0.1077,0.1072,0.1051,0.1075,0.1076,0.1132,0.1137,0.1142,0.1175,0.1179,0.1182,0.1184,0.1185,0.1186,0,0,0,0,0,0,0,0.0978,0.098,0.1001,0.1009,0.1013,0.1027,0.1032,0.1056,0.1087,0.1053,0.1057,0.106,0.1134,0.114,0.1145,0.1181,0.1182,0.1185,0.1187,0.1188,0.1301,0.1302,0,0,0,0,0,0,0.097,0.0979,0.1,0.1002,0.0999,0.1027,0.1032,0.1034,0.1085,0.1093,0.1059,0.1062,0.1134,0.1142,0.1149,0.1232,0.1185,0.1188,0.119,0.13,0.1301,0.1303,0,0,0,0,0,0,0.097,0.0972,0.0998,0.0991,0.0996,0.1026,0.1029,0.1035,0.1074,0.1089,0.1099,0.1096,0.1135,0.1145,0.1201,0.1233,0.1189,0.1192,0.1298,0.13,0.1302,0.1346,0,0,0,0,0,0,0.0969,0.0971,0.0982,0.0991,0.0996,0.1024,0.1028,0.1035,0.1072,0.1077,0.1124,0.1131,0.1137,0.1196,0.1204,0.1236,0.1194,0.1296,0.1299,0.1301,0.1343,0.1349,0.1354,0,0,0,0,0,0.0967,0.0965,0.0982,0.0985,0.1005,0.1025,0.103,0.1055,0.1073,0.1094,0.1129,0.1132,0.1217,0.12,0.1208,0.1242,0.1295,0.1298,0.1301,0.134,0.1348,0.1354,0,0,0,0,0,0,0.0955,0.097,0.0988,0.0991,0.1021,0.1034,0.1052,0.1073,0.1116,0.1129,0.115,0.1161,0.1221,0.1225,0.1206,0.1281,0.1256,0.126,0.1283,0.129,0.1296,0.1292,0.1196,0,0,0,0,0,0.0958,0.0971,0.0988,0.1002,0.1013,0.1043,0.1059,0.1079,0.1109,0.113,0.1161,0.1196,0.1232,0.1258,0.1284,0.1327,0.1327,0.1353,0.1359,0.1364,0.1366,0.1392,0.14,0.1312,0.1312,0.1312,0,0,0.0962,0.0971,0.0982,0.1003,0.1027,0.105,0.1057,0.1088,0.1122,0.1133,0.1196,0.1222,0.1249,0.1297,0.1324,0.131,0.139,0.1368,0.1372,0.1371,0.1396,0.1405,0.1412,0.1314,0.1314,0.1314,0,0,0.0968,0.0984,0.0998,0.102,0.1056,0.1072,0.109,0.1122,0.1154,0.121,0.1228,0.1272,0.1329,0.1349,0.1368,0.1422,0.1421,0.1437,0.1466,0.1491,0.1498,0.1505,0.1519,0.1526,0.1439,0.1439,0.1439,0,0.0976,0.0993,0.1008,0.1027,0.1053,0.1088,0.1116,0.1147,0.1199,0.123,0.124,0.1328,0.1351,0.1408,0.1428,0.1436,0.1447,0.1437,0.1498,0.1505,0.151,0.1523,0.153,0.1441,0.1441,0.1441,0.1441,0,0.0986,0.1015,0.1027,0.1067,0.1095,0.1127,0.1165,0.1209,0.1254,0.1284,0.1359,0.1387,0.1438,0.1454,0.1463,0.1519,0.1513,0.1503,0.1478,0.1522,0.1532,0.1539,0.1445,0.1444,0.1443,0.1443,0,0,0.0971,0.1024,0.1034,0.1068,0.1122,0.1145,0.1206,0.1265,0.1311,0.1365,0.1425,0.1485,0.1501,0.1522,0.1536,0.1559,0.1611,0.1555,0.1555,0.1564,0.1668,0.1562,0.1559,0.1617,0.1618,0.1619,0.1659,0,0.0988,0.1028,0.1053,0.1118,0.1147,0.1198,0.1251,0.131,0.1365,0.1425,0.1468,0.1528,0.1527,0.1559,0.1584,0.161,0.1631,0.1601,0.1628,0.1628,0.1525,0.1564,0.1624,0.1664,0.1666,0.1667,0.1668,0,0.099,0.1022,0.1075,0.1153,0.1171,0.1215,0.1307,0.1358,0.144,0.1482,0.1541,0.1574,0.1633,0.1617,0.1679,0.1664,0.1673,0.1679,0.1681,0.1569,0.1535,0.1612,0.168,0.1679,0.1678,0.1677,0.1677,0,0.0969,0.1041,0.1088,0.1114,0.1197,0.1244,0.1298,0.1381,0.1432,0.1522,0.1566,0.1629,0.1677,0.1701,0.1727,0.1714,0.1777,0.1756,0.1665,0.1658,0.1721,0.1714,0.179,0.179,0.179,0.179,0.1789,0,0.0962,0.1005,0.1088,0.1113,0.1181,0.1245,0.1322,0.1382,0.1469,0.1521,0.1595,0.1637,0.1703,0.1746,0.1749,0.1729,0.1799,0.1674,0.1662,0.1739,0.1734,0.1726,0.1718,0.1791,0.1791,0.179,0.179,0,0.0925,0.0979,0.1041,0.1137,0.117,0.1222,0.1328,0.1376,0.1469,0.1539,0.1573,0.1668,0.1717,0.1761,0.1804,0.1752,0.1745,0.1719,0.1804,0.1796,0.1601,0.1596,0.1614,0.161,0.1608,0.1605,0.1603,0,0.0902,0.0932,0.1042,0.1078,0.1126,0.1208,0.1258,0.1363,0.1408,0.1539,0.1561,0.1653,0.1699,0.1669,0.1726,0.1722,0.1699,0.1683,0.163,0.1597,0.1585,0.1584,0.1582,0.1599,0.1598,0.1597,0.1596,0,0.0861,0.0914,0.0958,0.1033,0.1096,0.1153,0.1234,0.1255,0.137,0.1473,0.15,0.1524,0.1575,0.1596,0.1611,0.1604,0.1685,0.1652,0.1657,0.1608,0.1579,0.1569,0.1571,0.1586,0.1588,0.1589,0.1589,0,0.083,0.085,0.0915,0.0974,0.1045,0.1073,0.1124,0.1172,0.1226,0.1365,0.1372,0.1462,0.1554,0.1536,0.1551,0.1538,0.1506,0.1444,0.1459,0.1471,0.1406,0.1347,0.1276,0,0,0,0,0,0.0795,0.0803,0.0849,0.0905,0.0973,0.1018,0.1094,0.1146,0.1257,0.1237,0.1297,0.1331,0.1353,0.1405,0.1361,0.1494,0.1517,0.1437,0.1454,0.1531,0.1543,0.1479,0,0,0,0,0,0,0.0767,0.08,0.0818,0.0833,0.0866,0.0926,0.0972,0.1045,0.1035,0.115,0.1165,0.1257,0.1297,0.1368,0.1341,0.1356,0.1337,0.1501,0.1497,0.1525,0.1535,0.1545,0.1483,0,0,0,0,0]},{"header":{"parameterUnit":"m.s-1","parameterCategory":2,"la1":30.2991,"la2":30.254,"lo1":-89.0895,"lo2":-89.0444,"dy":0.0017,"dx":0.0017,"nx":28,"ny":28,"refTime":"2025-01-22T03:00:00:Z","depth":"4","parameterNumber":3,"parameterNumberName":"V-component_of_CURRENTS"},"data":[0,0,0,0,0,0,0,0,0,0,0,0,0,0,0,0,0,0,0,0,0,0,0,0,0,0,0,0,0,0,0,0,0,0,0,0,0,0,0,0,0,0,0,0,0,0,0,0,0,0,0,0,0,0,0,0,0,0,0.0299,0.0299,0,0.0268,0.0267,0.0267,0.0235,0.0234,0.0234,0.0233,0.0201,0.0201,0.02,0,0,0,0,0,0,0,0,0,0,0,0,0,0.0311,0.0311,0.0299,0.0299,0.0299,0.0268,0.0267,0.0267,0.0235,0.0234,0.0234,0.0233,0.0201,0.0201,0.02,0,0,0,0,0,0,0,0,0,0,0,0,0,0.0295,0.0311,0.03,0.0279,0.0277,0.0268,0.0267,0.0267,0.0235,0.0234,0.0233,0.0233,0.0202,0.0201,0.02,0.0208,0,0,0.0198,0.0198,0,0,0,0,0,0,0,0,0.0296,0.0294,0.0283,0.0281,0.0278,0.0255,0.0259,0.0247,0.0235,0.025,0.0233,0.0233,0.022,0.0218,0.0212,0.0206,0.0205,0.0198,0.0198,0.0197,0.0197,0,0,0,0,0,0,0,0.0297,0.0295,0.0286,0.0282,0.028,0.0264,0.0262,0.0257,0.0239,0.0249,0.0247,0.0244,0.0219,0.0213,0.0211,0.0204,0.0198,0.0197,0.0197,0.0197,0.0177,0.0177,0,0,0,0,0,0,0.0304,0.0297,0.0287,0.0285,0.0286,0.0265,0.0262,0.0263,0.0238,0.0234,0.0245,0.0243,0.0215,0.0212,0.021,0.0199,0.0197,0.0197,0.0196,0.0177,0.0177,0.0177,0,0,0,0,0,0,0.0304,0.0303,0.0289,0.029,0.0287,0.0266,0.0267,0.0262,0.0253,0.0235,0.0231,0.0239,0.0214,0.0211,0.0198,0.0198,0.0196,0.0196,0.0177,0.0177,0.0177,0.0189,0,0,0,0,0,0,0.0305,0.0304,0.0311,0.0291,0.0288,0.0285,0.0267,0.0262,0.0253,0.025,0.023,0.0226,0.0213,0.0199,0.0197,0.0197,0.0195,0.0177,0.0177,0.0177,0.0189,0.019,0.019,0,0,0,0,0,0.0305,0.0318,0.0311,0.031,0.0297,0.0286,0.0283,0.0264,0.0253,0.0253,0.0233,0.0227,0.0197,0.0198,0.0196,0.0196,0.0177,0.0177,0.0177,0.0189,0.0189,0.019,0,0,0,0,0,0,0.0324,0.0315,0.0307,0.0316,0.0302,0.028,0.0282,0.0266,0.025,0.0247,0.0226,0.0221,0.0209,0.0202,0.0205,0.019,0.0186,0.0186,0.0196,0.0196,0.0197,0.0204,0.0194,0,0,0,0,0,0.0333,0.034,0.0324,0.0329,0.0326,0.0303,0.0298,0.0283,0.0265,0.0257,0.0241,0.0224,0.0208,0.0202,0.0189,0.0185,0.0174,0.0183,0.0183,0.0184,0.0188,0.0171,0.017,0.0176,0.0176,0.0176,0,0,0.0342,0.0338,0.0342,0.0334,0.0323,0.0317,0.0298,0.0291,0.0281,0.0258,0.0245,0.0227,0.0207,0.0195,0.019,0.0189,0.0175,0.0184,0.0184,0.0188,0.0171,0.017,0.017,0.0176,0.0176,0.0176,0,0,0.0361,0.0359,0.037,0.0361,0.0348,0.0331,0.033,0.0308,0.0295,0.0279,0.0257,0.0239,0.022,0.0203,0.0192,0.0191,0.0178,0.0187,0.0197,0.0181,0.018,0.018,0.0161,0.0158,0.0189,0.0189,0.0189,0,0.0372,0.0378,0.037,0.0374,0.0366,0.0338,0.0338,0.0323,0.0297,0.029,0.0277,0.024,0.0222,0.0205,0.0199,0.0192,0.018,0.0196,0.0182,0.0181,0.018,0.0161,0.0158,0.0189,0.0189,0.0189,0.0189,0,0.0394,0.0396,0.0401,0.0394,0.0387,0.0381,0.0358,0.0349,0.0327,0.0308,0.0287,0.0258,0.0237,0.0226,0.0209,0.0196,0.0188,0.0184,0.0181,0.0181,0.016,0.0157,0.019,0.019,0.019,0.019,0,0,0.0423,0.0418,0.0418,0.0416,0.0394,0.0391,0.0379,0.036,0.0356,0.0325,0.0316,0.0277,0.0261,0.0248,0.0226,0.0209,0.0186,0.0194,0.0193,0.0178,0.0147,0.0139,0.0135,0.0179,0.0179,0.0178,0.0133,0,0.0438,0.0447,0.0438,0.0438,0.0437,0.0413,0.0408,0.0388,0.0366,0.0354,0.0317,0.0301,0.027,0.0261,0.0236,0.0202,0.0179,0.0198,0.0148,0.0147,0.0142,0.0132,0.0177,0.0131,0.013,0.0129,0.0129,0,0.0462,0.0461,0.0466,0.0459,0.0458,0.0458,0.0445,0.0436,0.041,0.0393,0.0365,0.0339,0.0304,0.0281,0.0217,0.0231,0.0189,0.0159,0.0157,0.0145,0.0134,0.0132,0.0123,0.0124,0.0124,0.0125,0.0125,0,0.0483,0.0481,0.0485,0.0481,0.0471,0.0475,0.0469,0.0451,0.0454,0.0422,0.0421,0.0369,0.0352,0.0292,0.0222,0.022,0.0154,0.0145,0.0096,0.0095,0.011,0.0111,0.0098,0.0098,0.0098,0.0098,0.0098,0,0.0497,0.0504,0.0499,0.0503,0.0518,0.0502,0.0519,0.0504,0.0497,0.0506,0.0448,0.0444,0.0355,0.0305,0.0234,0.0156,0.016,0.0096,0.0083,0.0115,0.0118,0.0108,0.0109,0.0097,0.0097,0.0097,0.0098,0,0.0519,0.0514,0.0527,0.0525,0.053,0.0543,0.0562,0.058,0.0558,0.057,0.0563,0.0504,0.0433,0.0341,0.0244,0.018,0.0102,0.0072,0.0112,0.0103,0.0049,0.0052,0.0013,0.0013,0.0012,0.0012,0.0011,0,0.0528,0.0537,0.0552,0.0572,0.0576,0.0597,0.0622,0.0612,0.0632,0.0609,0.0622,0.0554,0.0503,0.0359,0.0255,0.0114,0.0092,0.0046,0.0043,0.0049,0.004,0.0044,0.0048,0.001,0.001,0.001,0.001,0,0.0549,0.0562,0.0574,0.0614,0.0647,0.0677,0.0707,0.0725,0.0717,0.0703,0.0665,0.0576,0.0493,0.0366,0.0253,0.0153,0.0073,0.004,0.004,0.0037,0.0045,0.0038,0.0042,0.0008,0.0008,0.0009,0.0009,0,0.0575,0.0592,0.062,0.0653,0.0698,0.0739,0.075,0.0765,0.0771,0.0737,0.0726,0.0616,0.0548,0.0387,0.0288,0.0182,0.0152,0.0114,0.011,0.011,0.0147,0.0173,0.0164,0,0,0,0,0,0.0594,0.0618,0.0658,0.0688,0.0734,0.0754,0.0802,0.0809,0.0803,0.0784,0.075,0.0665,0.0495,0.0423,0.0317,0.0281,0.014,0.0152,0.0096,-0.0002,-0.0,0.0026,0,0,0,0,0,0,0.0609,0.0649,0.0661,0.0712,0.0734,0.0782,0.0813,0.0812,0.0796,0.0771,0.0688,0.0624,0.0469,0.0548,0.0306,0.0274,0.0221,0.007,0.0067,-0.0004,-0.0002,0.0,0.0027,0,0,0,0,0]}]]